24 Sep
2015
24 Sep
'15
6:09 p.m.
For some reason my scrip is randomly dropping the preceeding zeros from the AO-07 TLEs. This has happened twice now and I wil investigate.
In the mean time, just copy the following TLE at the beginning of this of this week's distribution and you will be OK.
AO-07 1 07530U 74089B 15266.94424668 -.00000014 00000-0 18314-3 0 9992 2 07530 101.5335 239.6609 0012330 109.5108 257.0750 12.53616712869400
3297
Age (days ago)
3297
Last active (days ago)
0 comments
1 participants
participants (1)
-
Ray Hoad